Weather History for KCSM - January, 2014

Change the Weather History Date:

Tuesday, January 28, 2014

  Actual Average Record
Temperature  
Mean Temperature 21 °F -  
Max Temperature 30 °F 48 °F 75 °F (2008)
Min Temperature 12 °F 28 °F 8 °F (2009)
Degree Days  
Heating Degree Days 44    
Moisture  
Dew Point 7 °F    
Average Humidity 61    
Maximum Humidity 92    
Minimum Humidity 38    
Precipitation  
Precipitation 0.00 in - - ()
Sea Level Pressure  
Sea Level Pressure 30.47 in    
Wind  
Wind Speed 12 mph (North)    
Max Wind Speed 18 mph    
Max Gust Speed -    
Visibility 9 miles    
Events Snow    
Averages and records for this station are not official NWS values.
T = Trace of Precipitation, MM = Missing Value Source: NWS Daily Summary

Daily Weather History Graph

Daily Weather History Graph

Search for Another Location

Airport or City:

Trip Planner

Search our weather history database for the weather conditions in past years. The results will help you decide how hot, cold, wet, or windy it might be!

Date:

Astronomy

Jan. 28, 2014 Rise Set
Actual Time 7:39 AM CST 6:00 PM CST
Civil Twilight 7:12 AM CST 6:27 PM CST
Nautical Twilight 6:41 AM CST 6:58 PM CST
Astronomical Twilight 6:11 AM CST 7:28 PM CST
Moon 5:20 AM CST (1/28) 3:53 PM CST (1/28)
Length of Visible Light 11h 15m
Length of Day
10h 21m
Waning Crescent, 7% of the Moon is Illuminated
Jan 28
Waning Crescent
Jan 30
New
Feb 6
First Quarter
Feb 14
Full
Feb 22
Last Quarter

Hourly Weather History & Observations

Time (CST) Temp. Windchill Dew Point Humidity Pressure Visibility Wind Dir Wind Speed Gust Speed Precip Events Conditions
12:53 AM 16.0 °F 0.6 °F 1.0 °F 52% 30.47 in 10.0 mi NNE 16.1 mph - N/A   Overcast
1:53 AM 16.0 °F 2.3 °F 1.0 °F 52% 30.47 in 10.0 mi NNE 12.7 mph - N/A   Overcast
2:53 AM 16.0 °F -0.4 °F -0.9 °F 47% 30.47 in 10.0 mi NNE 18.4 mph - N/A   Overcast
3:53 AM 12.9 °F -3.4 °F 6.1 °F 74% 30.47 in 10.0 mi NNE 16.1 mph - N/A   Mostly Cloudy
4:53 AM 12.9 °F -2.8 °F 9.0 °F 84% 30.47 in 6.0 mi NNE 15.0 mph - 0.00 in Snow Light Snow
5:02 AM 12.2 °F -3.1 °F 8.6 °F 85% 30.39 in 4.0 mi NNE 13.8 mph - 0.00 in Snow Light Snow
5:10 AM 14.0 °F -1.4 °F 10.4 °F 86% 30.39 in 4.0 mi NNE 15.0 mph - 0.00 in Snow Light Snow
5:30 AM 12.2 °F -3.1 °F 10.4 °F 92% 30.39 in 4.0 mi NNE 13.8 mph - 0.00 in Snow Light Snow
5:53 AM 12.9 °F -2.8 °F 9.0 °F 84% 30.49 in 6.0 mi NNE 15.0 mph - 0.00 in Snow Light Snow
6:53 AM 12.9 °F -0.9 °F 10.0 °F 88% 30.51 in 5.0 mi NNE 11.5 mph - 0.00 in Snow Light Snow
7:53 AM 12.9 °F -0.2 °F 9.0 °F 84% 30.54 in 10.0 mi North 10.4 mph - 0.00 in   Overcast
8:53 AM 15.1 °F 2.5 °F 10.0 °F 80% 30.56 in 10.0 mi North 10.4 mph - N/A   Partly Cloudy
9:53 AM 18.0 °F 8.7 °F 6.1 °F 60% 30.57 in 10.0 mi North 6.9 mph - N/A   Mostly Cloudy
10:53 AM 19.9 °F 9.3 °F 1.9 °F 46% 30.58 in 10.0 mi NNE 9.2 mph - N/A   Clear
11:53 AM 21.9 °F - 3.9 °F 46% 30.57 in 10.0 mi Calm Calm - N/A   Clear
12:53 PM 25.0 °F 17.1 °F 3.9 °F 41% 30.52 in 10.0 mi NNW 6.9 mph - N/A   Clear
1:53 PM 28.9 °F 23.9 °F 6.1 °F 38% 30.47 in 10.0 mi Variable 4.6 mph - N/A   Clear
2:53 PM 28.9 °F - 7.0 °F 40% 30.45 in 10.0 mi Calm Calm - N/A   Clear
3:53 PM 30.9 °F 27.5 °F 9.0 °F 40% 30.43 in 10.0 mi North 3.5 mph - N/A   Clear
4:53 PM 30.9 °F 25.2 °F 9.0 °F 40% 30.42 in 10.0 mi SW 5.8 mph - N/A   Clear
5:53 PM 27.0 °F 18.0 °F 8.1 °F 45% 30.42 in 10.0 mi South 9.2 mph - N/A   Clear
6:53 PM 21.9 °F 11.7 °F 7.0 °F 53% 30.43 in 10.0 mi South 9.2 mph - N/A   Clear
7:53 PM 21.0 °F 8.6 °F 6.1 °F 53% 30.43 in 10.0 mi South 12.7 mph - N/A   Clear
8:53 PM 21.9 °F 9.2 °F 7.0 °F 53% 30.42 in 10.0 mi SSW 13.8 mph - N/A   Clear
9:53 PM 19.0 °F 7.5 °F 7.0 °F 59% 30.42 in 10.0 mi SW 10.4 mph - N/A   Clear
10:53 PM 18.0 °F 5.4 °F 7.0 °F 62% 30.41 in 10.0 mi SW 11.5 mph - N/A   Clear
11:53 PM 18.0 °F 6.1 °F 8.1 °F 65% 30.40 in 10.0 mi SW 10.4 mph - N/A   Clear